This is the latest recevied weather packets stored in our database for station/object WD4IXD-WX. If no packets are shown the sender has not sent any weather packets the latest 10 day(s).
| Time | Temp. | Humidity | Pressure | Rain* | Wind** | Luminosity | Snow |
|---|---|---|---|---|---|---|---|
| 1777926304 | 9.44° C | 41% | 1015.5 hPa | 0 mm | - | 258 W/m² | - |
| 1777926004 | 10° C | 39% | 1015.5 hPa | 0 mm | - | 183 W/m² | - |
| 1777925704 | 10° C | 36% | 1015.5 hPa | 0 mm | - | 146 W/m² | - |
| 1777925404 | 10° C | 37% | 1015.5 hPa | 0 mm | - | 123 W/m² | - |
| 1777925104 | 10° C | 33% | 1015.5 hPa | 0 mm | - | 127 W/m² | - |
| 1777924803 | 10° C | 34% | 1015.4 hPa | 0 mm | - | 163 W/m² | - |
| 1777924504 | 10° C | 33% | 1015.4 hPa | 0 mm | - | 176 W/m² | - |
| 1777924203 | 10° C | 32% | 1015.4 hPa | 0 mm | - | 248 W/m² | - |
| 1777923904 | 10° C | 32% | 1015.5 hPa | 0 mm | - | 181 W/m² | - |
| 1777923603 | 10° C | 33% | 1015.5 hPa | 0 mm | - | 206 W/m² | - |
| 1777923304 | 10° C | 32% | 1015.5 hPa | 0 mm | - | 162 W/m² | - |
| 1777923003 | 10° C | 33% | 1015.5 hPa | 0 mm | - | 151 W/m² | - |
| 1777922704 | 10° C | 32% | 1015.6 hPa | 0 mm | - | 181 W/m² | - |
| 1777922404 | 10° C | 32% | 1015.6 hPa | 0 mm | - | 192 W/m² | - |
| 1777922104 | 10° C | 33% | 1015.7 hPa | 0 mm | - | 192 W/m² | - |
| 1777921804 | 10.56° C | 33% | 1015.7 hPa | 0 mm | - | 199 W/m² | - |
| 1777921504 | 10.56° C | 33% | 1015.8 hPa | 0 mm | - | 244 W/m² | - |
| 1777921204 | 10.56° C | 33% | 1015.8 hPa | 0 mm | - | 271 W/m² | - |
| 1777920903 | 10.56° C | 33% | 1015.7 hPa | 0 mm | - | 236 W/m² | - |
| 1777920604 | 11.11° C | 32% | 1015.9 hPa | 0 mm | - | 239 W/m² | - |
| 1777920303 | 11.67° C | 32% | 1015.9 hPa | 0 mm | - | 341 W/m² | - |
| 1777920004 | 11.11° C | 33% | 1016 hPa | 0 mm | - | 1160 W/m² | - |
| 1777919703 | 10.56° C | 33% | 1016.1 hPa | 0 mm | - | 582 W/m² | - |
| 1777919404 | 10° C | 34% | 1016.1 hPa | 0 mm | - | 1121 W/m² | - |
| 1777919104 | 9.44° C | 37% | 1016.3 hPa | 0 mm | - | 1037 W/m² | - |
* Rain latest hour (hover to see other rain measurements)
** Current wind speed in m/s (hover to see current wind gust speed)